Location: Fairmont
(43.6520°N, 94.4610°W)
Time: 05:25:16
(UTC-05:00)

Cosmos-2242 - Visible Passes

Search period start: 27 September 2016 00:00
Search period end: 07 October 2016 00:00
Orbit: 593 x 618 km, 82.5° (Epoch: 26 September)

Date Brightness Start Highest point End Pass type
(mag) Time Alt. Az. Time Alt. Az. Time Alt. Az.
27 Sep 4.1 20:55:13 10° SSW 20:59:25 46° WNW 21:03:40 10° N visible
28 Sep 4.0 19:31:34 10° SE 19:35:10 26° E 19:38:49 10° NNE visible
28 Sep 5.1 21:08:52 10° SW 21:12:39 28° WNW 21:16:29 10° NNW visible
29 Sep 3.4 19:44:02 10° SSE 19:48:09 42° E 19:52:19 10° NNE visible
29 Sep 5.9 21:22:56 10° WSW 21:25:58 18° WNW 21:29:01 10° NNW visible
30 Sep 6.4 05:51:09 10° NE 05:53:10 13° ENE 05:55:11 10° E visible
30 Sep 3.0 19:56:51 10° S 20:01:12 73° E 20:05:36 10° NNE visible
30 Sep 6.5 21:37:56 10° W 21:39:20 11° WNW 21:40:46 10° NW visible
01 Oct 6.0 06:03:15 10° NNE 06:06:32 20° ENE 06:09:48 10° ESE visible
01 Oct 3.4 20:09:58 10° SSW 20:14:19 67° W 20:18:43 10° N visible
02 Oct 5.1 06:15:52 10° N 06:19:50 32° ENE 06:23:44 10° SE visible
02 Oct 4.5 20:23:23 10° SSW 20:27:31 40° WNW 20:31:40 10° N visible
03 Oct 4.0 06:28:44 10° N 06:33:02 53° ENE 06:37:18 10° SSE visible
03 Oct 5.5 20:37:08 10° SW 20:40:46 25° WNW 20:44:24 10° NNW visible
04 Oct 3.1 06:41:46 10° N 06:46:11 90° SE 06:50:31 10° S visible
04 Oct 6.2 20:51:24 10° WSW 20:54:06 16° WNW 20:56:47 10° NNW visible
05 Oct 6.3 05:18:49 10° NNE 05:21:18 15° ENE 05:23:47 10° ESE visible
05 Oct 3.0 19:24:52 10° S 19:29:15 85° E 19:33:41 10° N visible
06 Oct 5.6 05:31:07 10° NNE 05:34:39 23° ENE 05:38:08 10° SE visible
06 Oct 3.8 19:38:04 10° SSW 19:42:23 57° W 19:46:45 10° N visible
